sat.trackr.live / text

‹ back to catalog

IRIDE-MS1-EAGLET 2-11

NORAD 68453 · 2026-067AP

PAYLOAD ACTIVE UNKNOWN

§ Identity

Operator
Country
IT
Launch date
2026-03-30
Launch site
AFWTR
Launch vehicle
Mass (kg)
RCS (m²)

External: N2YO · Heavens-Above · Gunter

§ Orbital elements

Epoch: 2026-09-19T02:37:26.815296Z

Period
94.74 min
Inclination
97.4648°
Eccentricity
0.0004200
Mean motion
15.19916663 rev/d
Perigee alt
503.2 km
Apogee alt
509.0 km
Semi-major
6,884.2 km
B*
2.6494e-4
RAAN
219.4660°
Arg perigee
69.2308°
Mean anomaly
290.9376°
Rev number
2,620

§ Raw data

IRIDE-MS1-EAGLET 2-111 68453U 26067AP  26262.10933814  .00005625  00000+0  26494-3 0  99992 68453  97.4648 219.4660 0004200  69.2308 290.9376 15.19916663 26201

JSON: /api/v1/satellites/68453 · /tle

For live sub-satellite position, see the globe view (requires WebGL).

§ Visibility from observer

Set your observer location to see the next 7 days of passes ≥ 10°. The values pass through the URL so the page stays shareable.

No JS? Fill the form by hand. The geolocation button needs JavaScript.